Showing default

3CAT-5/A (TYVAK-0161), 46292

Orbit data source: Space-Track

3CAT-5/A (TYVAK-0161), 46292 is a payload satellite owned by UPC (ES) in SSO that was launched on Thu, 03 Sep 2020 UTC via a VEGA launch vehicle from the French Guiana (FRGUI). Payload-class satellites include a variety of spacecraft equipped with specific instruments for various scientific and technological missions. These include communications satellites like Starlink; space stations such as the ISS; scientific satellites like the Hubble; Earth observation satellites from companies like Planet Labs, Umbra, and HawkEye 360; GPS; miniature CubeSats for education and research; and military/defense satellites.

Loading next visibility...
Identifier
46292, 2020-061W
Orbit
SSO
Country
Flag of ESES / SPN
Related business
Manufacturer
UPC
Mission
Non-operational Amateur Technology
Bus & Motor
CUBESAT 6U, Unknown motor
Mass
~10 kg wet, ~10 kg dry
Launch date (UTC)
2020-09-03 (5 years ago)
Launch vehicle
VEGA
Launch site
French Guiana (FRGUI)
Object type
Payload
Rocket body
Debris
Shape & HBR
Box, Unknown HBR
Radar Cross Section
0.080 m², Medium (>0.1 m² and < 1m²)

Expand to show TLE details & history
Last TLE update: 10 hours ago

TLE from 10 hours ago
0 3CAT-5/A (TYVAK-0161)
1 46292U 20061W   25312.65512829  .00023581  00000-0  62778-3 0  9995
2 46292  97.2748  11.5993 0002201 160.5750 199.5579 15.38197330287034
Epoch: 2025-11-08T15:43Z
TLE epoch observation values (Epoch: 2025-11-08T15:43:23.084Z)
Latitude
-0.00007°
Longitude
87.6715°
Altitude
455.976 km
Speed
7.638 km/s
True Right ascension
00h 46m 23s
True Declination
0° 00' 00"
Sunlit
Object was in full shadow at epoch
Visualization orbit readout
Latitude
Unknown
Longitude
Unknown
Altitude
Unknown
Speed
Unknown
Apparent Right ascension
Unknown
Apparent Declination
Unknown
Sunlit
N/A
Visualization observer readout
Local Sidereal Time
21:44:35
Azimuth
Unknown
Elevation
Unknown
Doppler factor
Unknown
Orbital elements
Apogee altitude
449.879 km
Perigee altitude
446.873 km
Semi-major axis
6,826.513 km
Eccentricity
0.00022
Inclination
97.2748°
RAAN
11.5993°
Arg. of periapsis
160.575°
True anomaly
199.54946°
Mean anomaly
199.5579°
Eccentric anomaly
199.55368°
Mean motion
3.84809 °/min
Orbital period
93.55 mins
BSTAR
0.00062778
Loading maneuver chart data...
Computing Atmospheric mass density...

Documentation

Showing up to 5 results
|